AAL344 KJFK-EDDF

Flight info

Callsign AAL344
Flight time N/A
Altitude 37000
Route GREKI DCT JUDDS DCT MARTN DCT EBONY N567B TUDEP/M083F390 DCT 52N050W 54N040W 55N030W 55N020W DCT DOGAL DCT BEXET/N0480F390 DCT MORAG DCT NUCHU L607 KONAN DCT KOK UL607 FERDI DCT REMBA DCT SPI T180 NIVNU T847 IMCOM IMCOM1D
Aircraft B772/H-SDE2E3FGHIJ5LORVWXY/LB1D1

Departure

Time 2026-05-08 14:01
Airport John F. Kennedy International Airport (KJFK)

Arrival

Time N/A
Airport Frankfurt Main Airport (EDDF)
Time Latitude Longitude Altitude Speed Heading
2026-05-08 13:28 40.64778 -73.79344 27 ft 0 kts 151°
2026-05-08 13:47 40.64791 -73.79354 27 ft 3 kts 152°
2026-05-08 13:47 40.64816 -73.79369 27 ft 3 kts 167°
2026-05-08 13:47 40.64839 -73.79368 27 ft 3 kts 196°
2026-05-08 13:47 40.64855 -73.79353 27 ft 2 kts 236°
2026-05-08 13:48 40.64864 -73.79331 27 ft 0 kts 243°
2026-05-08 13:48 40.64857 -73.79349 27 ft 3 kts 244°
2026-05-08 13:48 40.64849 -73.79372 27 ft 0 kts 242°
2026-05-08 13:50 40.64849 -73.79371 27 ft 0 kts 242°
2026-05-08 13:53 40.64846 -73.79378 27 ft 3 kts 242°
2026-05-08 13:53 40.64812 -73.79459 27 ft 16 kts 240°
2026-05-08 13:54 40.64749 -73.79596 27 ft 14 kts 231°
2026-05-08 13:54 40.64664 -73.79582 27 ft 14 kts 144°
2026-05-08 13:54 40.64574 -73.79518 27 ft 14 kts 168°
2026-05-08 13:54 40.64471 -73.79498 27 ft 15 kts 173°
2026-05-08 13:55 40.64366 -73.79491 27 ft 15 kts 181°
2026-05-08 13:55 40.64247 -73.79497 27 ft 19 kts 184°
2026-05-08 13:55 40.64019 -73.79386 27 ft 18 kts 120°
2026-05-08 13:56 40.63945 -73.79224 27 ft 26 kts 120°
2026-05-08 13:56 40.63843 -73.79004 27 ft 28 kts 120°
2026-05-08 13:56 40.63741 -73.78783 27 ft 27 kts 120°
2026-05-08 13:56 40.63646 -73.78564 27 ft 27 kts 119°
2026-05-08 13:57 40.63551 -73.78356 27 ft 21 kts 122°
2026-05-08 13:57 40.63480 -73.78205 27 ft 19 kts 120°
2026-05-08 13:57 40.63416 -73.78053 27 ft 18 kts 120°
2026-05-08 13:57 40.63350 -73.77902 27 ft 18 kts 120°
2026-05-08 13:58 40.63285 -73.77753 27 ft 18 kts 118°
2026-05-08 13:58 40.63217 -73.77608 27 ft 18 kts 121°
2026-05-08 13:58 40.63151 -73.77464 27 ft 18 kts 120°
2026-05-08 13:58 40.63091 -73.77331 27 ft 13 kts 122°
2026-05-08 13:59 40.63032 -73.77303 27 ft 7 kts 199°
2026-05-08 13:59 40.62979 -73.77339 27 ft 8 kts 209°
2026-05-08 13:59 40.62928 -73.77377 27 ft 6 kts 210°
2026-05-08 13:59 40.62915 -73.77424 27 ft 6 kts 284°
2026-05-08 14:00 40.62926 -73.77454 27 ft 0 kts 301°
2026-05-08 14:00 40.62980 -73.77571 27 ft 43 kts 300°
2026-05-08 14:00 40.63249 -73.78168 27 ft 107 kts 301°
2026-05-08 14:00 40.63730 -73.79230 34 ft 157 kts 301°
2026-05-08 14:01 40.64307 -73.80491 474 ft 164 kts 301°
2026-05-08 14:01 40.64832 -73.81843 1092 ft 167 kts 288°
2026-05-08 14:01 40.64870 -73.83333 1414 ft 171 kts 258°
2026-05-08 14:01 40.64302 -73.84759 1514 ft 186 kts 234°
2026-05-08 14:02 40.63422 -73.86117 1567 ft 203 kts 233°
2026-05-08 14:02 40.62265 -73.87304 1608 ft 226 kts 203°
2026-05-08 14:02 40.60636 -73.87530 1751 ft 249 kts 171°
2026-05-08 14:02 40.59002 -73.86578 1981 ft 267 kts 141°
2026-05-08 14:03 40.57869 -73.84634 2412 ft 273 kts 111°
2026-05-08 14:03 40.57509 -73.82190 2932 ft 274 kts 90°
2026-05-08 14:03 40.57758 -73.79768 3441 ft 271 kts 64°
2026-05-08 14:03 40.58828 -73.77761 3971 ft 265 kts 36°
2026-05-08 14:04 40.60402 -73.76595 4504 ft 261 kts 18°
2026-05-08 14:04 40.62099 -73.75715 4924 ft 265 kts 16°
2026-05-08 14:04 40.63810 -73.74844 5003 ft 270 kts 16°
2026-05-08 14:04 40.65561 -73.73953 5715 ft 266 kts 16°
2026-05-08 14:05 40.67257 -73.73086 6384 ft 263 kts 15°
2026-05-08 14:05 40.68991 -73.72203 6898 ft 266 kts 15°
2026-05-08 14:05 40.70717 -73.71324 7399 ft 269 kts 14°
2026-05-08 14:05 40.72473 -73.70428 7914 ft 270 kts 14°
2026-05-08 14:06 40.74224 -73.69534 8435 ft 271 kts 14°
2026-05-08 14:06 40.75982 -73.68638 8899 ft 274 kts 14°
2026-05-08 14:06 40.77754 -73.67732 9352 ft 276 kts 14°
2026-05-08 14:06 40.79559 -73.66811 9797 ft 278 kts 14°
2026-05-08 14:07 40.81369 -73.65886 10117 ft 284 kts 14°
2026-05-08 14:07 40.83279 -73.64915 10172 ft 301 kts 14°
2026-05-08 14:07 40.85291 -73.63893 10221 ft 318 kts 15°
2026-05-08 14:07 40.87387 -73.62826 10287 ft 334 kts 15°
2026-05-08 14:08 40.89603 -73.61695 10380 ft 349 kts 15°
2026-05-08 14:08 40.91922 -73.60509 10570 ft 361 kts 15°
2026-05-08 14:08 40.94287 -73.59293 11066 ft 365 kts 15°
2026-05-08 14:08 40.96660 -73.58072 11645 ft 367 kts 15°
2026-05-08 14:09 40.99055 -73.56838 12167 ft 371 kts 15°
2026-05-08 14:09 41.01476 -73.55592 12716 ft 376 kts 15°
2026-05-08 14:09 41.03911 -73.54335 13334 ft 379 kts 14°
2026-05-08 14:09 41.06380 -73.53061 13956 ft 383 kts 14°
2026-05-08 14:10 41.08863 -73.51778 14584 ft 388 kts 14°
2026-05-08 14:10 41.11415 -73.50459 15209 ft 394 kts 14°
2026-05-08 14:10 41.13976 -73.49134 15930 ft 397 kts 14°
2026-05-08 14:10 41.16562 -73.47795 16549 ft 402 kts 14°
2026-05-08 14:11 41.19190 -73.46433 17203 ft 407 kts 13°
2026-05-08 14:11 41.21804 -73.45078 17833 ft 412 kts 13°
2026-05-08 14:11 41.24482 -73.43688 18451 ft 417 kts 13°
2026-05-08 14:11 41.27202 -73.42276 19081 ft 421 kts 13°
2026-05-08 14:12 41.29956 -73.40844 19778 ft 425 kts 12°
2026-05-08 14:12 41.32708 -73.39412 20345 ft 430 kts 13°
2026-05-08 14:12 41.35498 -73.37958 21012 ft 434 kts 12°
2026-05-08 14:12 41.38335 -73.36476 21745 ft 435 kts 12°
2026-05-08 14:13 41.41162 -73.35000 22331 ft 440 kts 12°
2026-05-08 14:13 41.43993 -73.33520 22809 ft 446 kts 13°
2026-05-08 14:13 41.46846 -73.31696 23317 ft 462 kts 21°
2026-05-08 14:13 41.49549 -73.29213 23841 ft 477 kts 32°
2026-05-08 14:14 41.52009 -73.26177 24444 ft 486 kts 37°
2026-05-08 14:14 41.54413 -73.22977 24929 ft 492 kts 37°
2026-05-08 14:14 41.56872 -73.19773 25361 ft 493 kts 33°
2026-05-08 14:14 41.59570 -73.17042 25738 ft 488 kts 24°
2026-05-08 14:15 41.62541 -73.14896 26096 ft 482 kts 14°
2026-05-08 14:15 41.65667 -73.13425 26562 ft 473 kts
2026-05-08 14:15 41.68894 -73.12628 27075 ft 463 kts 356°
2026-05-08 14:15 41.72036 -73.12496 27603 ft 453 kts 347°
2026-05-08 14:16 41.75150 -73.12882 28061 ft 450 kts 343°
2026-05-08 14:16 41.78284 -73.13387 28585 ft 451 kts 343°
2026-05-08 14:16 41.81375 -73.13895 29079 ft 452 kts 343°
2026-05-08 14:16 41.84540 -73.14422 29600 ft 453 kts 343°
2026-05-08 14:17 41.87657 -73.14945 30026 ft 456 kts 343°
2026-05-08 14:17 41.90801 -73.15475 30489 ft 456 kts 342°
2026-05-08 14:17 41.93970 -73.16009 30931 ft 455 kts 342°
2026-05-08 14:17 41.97102 -73.16540 31297 ft 454 kts 343°
2026-05-08 14:18 42.00235 -73.17073 31626 ft 455 kts 343°
2026-05-08 14:18 42.03381 -73.17612 31842 ft 459 kts 343°
2026-05-08 14:18 42.06535 -73.18151 32110 ft 461 kts 343°
2026-05-08 14:18 42.09723 -73.18697 32448 ft 462 kts 343°
2026-05-08 14:19 42.12922 -73.19243 32808 ft 461 kts 343°
2026-05-08 14:19 42.16135 -73.19794 33128 ft 462 kts 343°
2026-05-08 14:19 42.19310 -73.20338 33482 ft 461 kts 343°
2026-05-08 14:19 42.22487 -73.20885 33824 ft 463 kts 344°
2026-05-08 14:20 42.25671 -73.21433 34130 ft 465 kts 344°
2026-05-08 14:20 42.28933 -73.21995 34471 ft 466 kts 344°
2026-05-08 14:20 42.32108 -73.22543 34788 ft 466 kts 345°
2026-05-08 14:20 42.35368 -73.23106 35131 ft 466 kts 345°
2026-05-08 14:21 42.38552 -73.23655 35462 ft 466 kts 345°
2026-05-08 14:21 42.41793 -73.24216 35704 ft 468 kts 345°
2026-05-08 14:21 42.45023 -73.24690 35902 ft 475 kts 350°
2026-05-08 14:21 42.48362 -73.24603 36121 ft 486 kts 359°
2026-05-08 14:22 42.51737 -73.23826 36326 ft 497 kts
2026-05-08 14:22 42.55072 -73.22315 36619 ft 505 kts 17°
2026-05-08 14:22 42.58187 -73.20161 36854 ft 514 kts 25°
2026-05-08 14:23 42.63798 -73.13857 36895 ft 533 kts 44°
2026-05-08 14:23 42.66927 -73.07819 36886 ft 536 kts 58°
2026-05-08 14:24 42.69864 -73.00197 36876 ft 539 kts 58°
2026-05-08 14:24 42.73407 -72.91202 36864 ft 539 kts 58°
2026-05-08 14:25 42.76983 -72.82322 36867 ft 538 kts 57°
2026-05-08 14:25 42.80597 -72.73451 36872 ft 538 kts 57°
2026-05-08 14:26 42.84228 -72.64580 36872 ft 538 kts 57°
2026-05-08 14:26 42.87883 -72.55666 36877 ft 537 kts 57°
2026-05-08 14:27 42.91501 -72.46836 36880 ft 535 kts 57°
2026-05-08 14:27 42.95136 -72.37951 36881 ft 536 kts 57°
2026-05-08 14:28 42.98775 -72.29034 36866 ft 537 kts 58°
2026-05-08 14:28 43.02387 -72.20164 36863 ft 536 kts 58°
2026-05-08 14:29 43.05999 -72.11266 36858 ft 535 kts 58°
2026-05-08 14:29 43.09602 -72.02362 36850 ft 536 kts 58°
2026-05-08 14:30 43.13209 -71.93424 36847 ft 534 kts 58°
2026-05-08 14:30 43.16771 -71.84570 36852 ft 535 kts 58°
2026-05-08 14:31 43.20364 -71.75613 36860 ft 535 kts 58°
2026-05-08 14:31 43.23918 -71.66724 36860 ft 535 kts 59°
2026-05-08 14:32 43.27022 -71.57402 36862 ft 540 kts 72°
2026-05-08 14:32 43.27873 -71.52367 36872 ft 541 kts 81°
2026-05-08 14:32 43.28526 -71.42094 36863 ft 540 kts 80°
2026-05-08 14:33 43.30279 -71.32108 36853 ft 539 kts 74°
2026-05-08 14:33 43.32246 -71.22201 36840 ft 538 kts 73°
2026-05-08 14:34 43.34900 -71.12574 36843 ft 537 kts 66°
2026-05-08 14:34 43.37710 -71.03128 36849 ft 536 kts 66°
2026-05-08 14:35 43.40528 -70.93625 36858 ft 537 kts 66°
2026-05-08 14:35 43.43327 -70.84180 36860 ft 536 kts 65°
2026-05-08 14:36 43.47196 -70.75495 36853 ft 530 kts 47°
2026-05-08 14:36 43.52544 -70.68673 36855 ft 524 kts 37°
2026-05-08 14:37 43.57554 -70.61275 36856 ft 531 kts 48°
2026-05-08 14:37 43.62186 -70.53384 36856 ft 531 kts 48°
2026-05-08 14:38 43.66810 -70.45476 36853 ft 531 kts 48°
2026-05-08 14:38 43.71433 -70.37550 36851 ft 530 kts 48°
2026-05-08 14:39 43.76048 -70.29613 36843 ft 530 kts 49°
2026-05-08 14:39 43.80672 -70.21641 36843 ft 530 kts 49°
2026-05-08 14:40 43.85267 -70.13697 36837 ft 529 kts 49°
2026-05-08 14:40 43.89863 -70.05729 36839 ft 530 kts 49°
2026-05-08 14:41 43.94465 -69.97730 36828 ft 531 kts 49°
2026-05-08 14:41 43.99078 -69.89687 36829 ft 532 kts 49°
2026-05-08 14:42 44.03675 -69.81652 36819 ft 531 kts 49°
2026-05-08 14:42 44.08231 -69.73666 36818 ft 530 kts 49°
2026-05-08 14:43 44.12814 -69.65611 36811 ft 531 kts 50°
2026-05-08 14:43 44.17408 -69.57511 36806 ft 530 kts 50°
2026-05-08 14:44 44.21969 -69.49451 36802 ft 530 kts 50°
2026-05-08 14:44 44.26532 -69.41361 36807 ft 530 kts 50°
2026-05-08 14:45 44.31072 -69.33292 36799 ft 532 kts 50°
2026-05-08 14:45 44.35621 -69.25183 36798 ft 531 kts 51°
2026-05-08 14:46 44.40164 -69.17062 36799 ft 531 kts 51°
2026-05-08 14:46 44.44701 -69.08929 36802 ft 531 kts 51°
2026-05-08 14:47 44.49223 -69.00801 36809 ft 530 kts 51°
2026-05-08 14:47 44.53755 -68.92630 36803 ft 530 kts 51°
2026-05-08 14:48 44.58271 -68.84465 36804 ft 531 kts 51°
2026-05-08 14:48 44.62783 -68.76285 36799 ft 531 kts 51°
2026-05-08 14:49 44.67305 -68.68064 36801 ft 531 kts 51°
2026-05-08 14:49 44.71783 -68.59897 36803 ft 531 kts 51°
2026-05-08 14:50 44.76306 -68.51626 36798 ft 532 kts 51°
2026-05-08 14:50 44.80777 -68.43426 36795 ft 531 kts 51°
2026-05-08 14:51 44.85291 -68.35126 36791 ft 531 kts 51°
2026-05-08 14:51 44.89751 -68.26898 36783 ft 532 kts 52°
2026-05-08 14:52 44.96454 -68.14491 36776 ft 532 kts 52°
2026-05-08 14:53 45.00935 -68.06167 36769 ft 532 kts 52°
2026-05-08 14:53 45.05402 -67.97842 36763 ft 531 kts 52°
2026-05-08 14:54 45.09857 -67.89516 36758 ft 531 kts 52°
2026-05-08 14:54 45.14305 -67.81181 36753 ft 531 kts 52°
2026-05-08 14:55 45.18745 -67.72835 36753 ft 533 kts 52°
2026-05-08 14:55 45.23175 -67.64482 36752 ft 532 kts 52°
2026-05-08 14:56 45.27597 -67.56123 36749 ft 532 kts 53°
2026-05-08 14:56 45.32043 -67.47691 36747 ft 533 kts 53°
2026-05-08 14:57 45.36467 -67.39278 36743 ft 533 kts 53°
2026-05-08 14:57 45.40901 -67.30819 36734 ft 533 kts 53°
2026-05-08 14:58 45.45302 -67.22399 36732 ft 532 kts 54°
2026-05-08 14:58 45.49695 -67.13969 36731 ft 533 kts 54°
2026-05-08 14:59 45.54102 -67.05487 36736 ft 532 kts 54°
2026-05-08 14:59 45.60707 -66.92727 36752 ft 532 kts 54°
2026-05-08 15:00 45.65077 -66.84252 36750 ft 531 kts 54°
2026-05-08 15:00 45.69427 -66.75792 36749 ft 533 kts 54°
2026-05-08 15:01 45.73819 -66.67224 36753 ft 534 kts 54°
2026-05-08 15:01 45.78200 -66.58652 36748 ft 535 kts 54°
2026-05-08 15:02 45.82578 -66.50058 36758 ft 534 kts 54°
2026-05-08 15:02 45.86932 -66.41487 36751 ft 534 kts 54°
2026-05-08 15:03 45.91280 -66.32901 36747 ft 533 kts 55°
2026-05-08 15:03 45.95665 -66.24216 36746 ft 536 kts 55°
2026-05-08 15:04 46.00011 -66.15581 36742 ft 533 kts 55°
2026-05-08 15:04 46.04341 -66.06953 36740 ft 535 kts 55°
2026-05-08 15:05 46.08671 -65.98296 36732 ft 534 kts 55°
2026-05-08 15:05 46.13007 -65.89603 36731 ft 535 kts 56°
2026-05-08 15:06 46.17339 -65.80888 36730 ft 534 kts 56°
2026-05-08 15:06 46.21623 -65.72246 36711 ft 535 kts 56°
2026-05-08 15:07 46.25934 -65.63520 36709 ft 534 kts 56°
2026-05-08 15:07 46.30256 -65.54746 36709 ft 534 kts 56°
2026-05-08 15:08 46.33808 -65.47514 36704 ft 534 kts 56°
2026-05-08 15:08 46.38798 -65.37322 36711 ft 535 kts 56°
2026-05-08 15:09 46.43122 -65.28462 36699 ft 535 kts 57°
2026-05-08 15:09 46.47375 -65.19718 36681 ft 536 kts 57°
2026-05-08 15:10 46.51655 -65.10891 36698 ft 535 kts 57°
2026-05-08 15:10 46.55925 -65.02059 36691 ft 536 kts 57°
2026-05-08 15:11 46.60197 -64.93192 36693 ft 536 kts 58°
2026-05-08 15:11 46.64431 -64.84377 36690 ft 536 kts 58°
2026-05-08 15:12 46.68689 -64.75484 36690 ft 536 kts 58°
2026-05-08 15:12 46.72936 -64.66585 36686 ft 537 kts 58°
2026-05-08 15:13 46.77175 -64.57674 36690 ft 538 kts 58°
2026-05-08 15:13 46.81422 -64.48718 36690 ft 540 kts 58°
2026-05-08 15:14 46.85666 -64.39742 36688 ft 538 kts 58°
2026-05-08 15:14 46.89905 -64.30746 36684 ft 536 kts 59°
2026-05-08 15:15 46.94093 -64.21827 36696 ft 539 kts 59°
2026-05-08 15:15 46.98334 -64.12766 36701 ft 539 kts 59°
2026-05-08 15:16 47.02545 -64.03743 36709 ft 540 kts 60°
2026-05-08 15:16 47.06759 -63.94682 36721 ft 541 kts 60°
2026-05-08 15:17 47.10986 -63.85561 36696 ft 542 kts 59°
2026-05-08 15:17 47.15182 -63.76482 36707 ft 539 kts 60°
2026-05-08 15:18 47.19397 -63.67327 36690 ft 543 kts 60°
2026-05-08 15:18 47.23579 -63.58217 36686 ft 539 kts 60°
2026-05-08 15:19 47.27764 -63.49068 36684 ft 543 kts 60°
2026-05-08 15:19 47.31964 -63.39856 36690 ft 542 kts 60°
2026-05-08 15:20 47.36143 -63.30663 36677 ft 539 kts 61°
2026-05-08 15:20 47.40310 -63.21461 36686 ft 541 kts 61°
2026-05-08 15:21 47.44466 -63.12253 36699 ft 543 kts 62°
2026-05-08 15:21 47.48636 -63.02983 36686 ft 543 kts 61°
2026-05-08 15:22 47.52797 -62.93703 36676 ft 544 kts 61°
2026-05-08 15:22 47.56954 -62.84401 36697 ft 542 kts 61°
2026-05-08 15:23 47.61090 -62.75114 36693 ft 543 kts 62°
2026-05-08 15:23 47.65223 -62.65802 36698 ft 544 kts 62°
2026-05-08 15:24 47.69371 -62.56423 36694 ft 544 kts 62°
2026-05-08 15:24 47.73488 -62.47085 36693 ft 544 kts 62°
2026-05-08 15:25 47.77632 -62.37649 36707 ft 546 kts 62°
2026-05-08 15:25 47.81758 -62.28226 36712 ft 544 kts 63°
2026-05-08 15:26 47.85840 -62.18870 36708 ft 545 kts 63°
2026-05-08 15:26 47.89954 -62.09404 36736 ft 547 kts 63°
2026-05-08 15:27 47.92024 -62.04632 36561 ft 545 kts 63°
2026-05-08 15:27 47.94076 -61.99894 36690 ft 545 kts 63°
2026-05-08 15:27 47.98174 -61.90393 36696 ft 551 kts 63°
2026-05-08 15:28 48.02288 -61.80835 36691 ft 546 kts 63°
2026-05-08 15:28 48.06383 -61.71285 36692 ft 548 kts 63°
2026-05-08 15:29 48.10489 -61.61671 36693 ft 550 kts 64°
2026-05-08 15:29 48.14551 -61.52132 36668 ft 549 kts 64°
2026-05-08 15:30 48.18658 -61.42444 36689 ft 555 kts 64°
2026-05-08 15:30 48.22764 -61.32733 36682 ft 549 kts 65°
2026-05-08 15:31 48.26829 -61.23080 36685 ft 552 kts 65°
2026-05-08 15:31 48.30897 -61.13389 36684 ft 550 kts 65°
2026-05-08 15:32 48.34971 -61.03644 36689 ft 553 kts 66°
2026-05-08 15:32 48.39024 -60.93918 36679 ft 550 kts 66°
2026-05-08 15:33 48.43049 -60.84221 36687 ft 552 kts 66°
2026-05-08 15:33 48.47112 -60.74396 36681 ft 555 kts 66°
2026-05-08 15:34 48.51161 -60.64572 36700 ft 553 kts 66°
2026-05-08 15:34 48.55197 -60.54744 36689 ft 553 kts 66°
2026-05-08 15:35 48.59225 -60.44899 36676 ft 553 kts 66°
2026-05-08 15:35 48.63258 -60.34997 36677 ft 558 kts 66°
2026-05-08 15:36 48.66604 -60.26768 36658 ft 551 kts 67°
2026-05-08 15:36 48.71253 -60.15285 36683 ft 552 kts 67°
2026-05-08 15:37 48.75275 -60.05299 36680 ft 557 kts 68°
2026-05-08 15:37 48.79270 -59.95355 36665 ft 555 kts 67°
2026-05-08 15:38 48.83276 -59.85342 36681 ft 556 kts 68°
2026-05-08 15:38 48.87251 -59.75368 36684 ft 557 kts 68°
2026-05-08 15:39 48.91228 -59.65355 36690 ft 557 kts 67°
2026-05-08 15:39 48.95218 -59.55267 36698 ft 556 kts 67°
2026-05-08 15:40 48.99144 -59.45313 36692 ft 554 kts 68°
2026-05-08 15:40 49.03140 -59.35122 36708 ft 562 kts 67°
2026-05-08 15:41 49.07087 -59.25040 36697 ft 554 kts 68°
2026-05-08 15:41 49.11029 -59.14928 36671 ft 555 kts 69°
2026-05-08 15:42 49.14949 -59.04822 36676 ft 558 kts 69°
2026-05-08 15:42 49.18891 -58.94624 36672 ft 560 kts 68°
2026-05-08 15:43 49.22825 -58.84415 36662 ft 555 kts 68°
2026-05-08 15:43 49.26724 -58.74249 36658 ft 560 kts 68°
2026-05-08 15:44 49.30644 -58.63995 36656 ft 558 kts 69°
2026-05-08 15:44 49.34527 -58.53800 36663 ft 556 kts 68°
2026-05-08 15:45 49.38423 -58.43517 36677 ft 561 kts 68°
2026-05-08 15:45 49.42296 -58.33271 36661 ft 557 kts 69°
2026-05-08 15:46 49.46177 -58.22959 36664 ft 556 kts 69°
2026-05-08 15:46 49.50030 -58.12678 36658 ft 559 kts 69°
2026-05-08 15:47 49.53882 -58.02359 36656 ft 556 kts 69°
2026-05-08 15:47 49.57705 -57.92079 36654 ft 558 kts 69°
2026-05-08 15:48 49.63477 -57.76474 36629 ft 560 kts 69°
2026-05-08 15:49 49.67301 -57.66087 36614 ft 560 kts 69°
2026-05-08 15:49 49.71133 -57.55642 36622 ft 558 kts 68°
2026-05-08 15:50 49.74941 -57.45209 36629 ft 560 kts 69°
2026-05-08 15:50 49.78729 -57.34808 36641 ft 554 kts 70°
2026-05-08 15:51 49.82489 -57.24429 36639 ft 557 kts 69°
2026-05-08 15:51 49.86259 -57.13975 36640 ft 557 kts 69°
2026-05-08 15:52 49.90024 -57.03503 36647 ft 556 kts 70°
2026-05-08 15:52 49.93749 -56.93100 36649 ft 554 kts 69°
2026-05-08 15:53 49.97480 -56.82629 36649 ft 556 kts 69°
2026-05-08 15:53 50.01222 -56.72087 36662 ft 556 kts 69°
2026-05-08 15:54 50.04914 -56.61649 36662 ft 555 kts 69°
2026-05-08 15:54 50.08631 -56.51090 36669 ft 558 kts 69°
2026-05-08 15:55 50.12324 -56.40561 36639 ft 555 kts 69°
2026-05-08 15:55 50.17855 -56.24711 36636 ft 554 kts 70°